BON278K FACT-LLBG

Flight info

Callsign BON278K
Flight time N/A
Altitude 35000
Route KODES1A KODES UZ30 IMKIV UT916 VLS UA409 KMI UY198 KNM UB527 OVELA L567 IMDUR M320 EGTAD M565 SISID Z822 ITNAR A727 LXR L604 ASRAB R650 NALSO J10 ZFR T94 MZD J10 TOMAL T99 SALAM
Aircraft A339/H-SADE1E2E3GHIJ3J5M1P2RWXY/LB2D1

Departure

Time N/A
Airport Cape Town International Airport (FACT)

Arrival

Time 2026-05-05 06:49
Airport Ben Gurion International Airport (LLBG)
Time Latitude Longitude Altitude Speed Heading
2026-05-05 04:01 13.85988 35.25226 34885 ft 485 kts 21°
2026-05-05 04:01 13.91338 35.27619 34886 ft 485 kts 21°
2026-05-05 04:02 13.98829 35.30973 34892 ft 485 kts 21°
2026-05-05 04:02 14.05229 35.33841 34895 ft 485 kts 21°
2026-05-05 04:03 14.11751 35.36764 34897 ft 485 kts 21°
2026-05-05 04:03 14.18212 35.39663 34899 ft 486 kts 21°
2026-05-05 04:04 14.24678 35.42564 34905 ft 486 kts 21°
2026-05-05 04:04 14.30059 35.44983 34908 ft 486 kts 21°
2026-05-05 04:05 14.35446 35.47404 34906 ft 486 kts 21°
2026-05-05 04:05 14.44066 35.51284 34902 ft 486 kts 21°
2026-05-05 04:06 14.50539 35.54196 34899 ft 486 kts 21°
2026-05-05 04:06 14.55880 35.56602 34895 ft 486 kts 21°
2026-05-05 04:07 14.70305 35.63102 34895 ft 486 kts 21°
2026-05-05 04:08 14.76769 35.66018 34894 ft 486 kts 21°
2026-05-05 04:08 14.83433 35.68102 34893 ft 482 kts
2026-05-05 04:09 14.90432 35.68311 34895 ft 477 kts 352°
2026-05-05 04:09 14.97109 35.66674 34894 ft 472 kts 337°
2026-05-05 04:10 15.03470 35.63937 34892 ft 472 kts 334°
2026-05-05 04:10 15.09752 35.61166 34892 ft 472 kts 335°
2026-05-05 04:11 15.16120 35.58385 34892 ft 472 kts 335°
2026-05-05 04:11 15.22445 35.55632 34892 ft 472 kts 335°
2026-05-05 04:12 15.28744 35.52887 34894 ft 472 kts 335°
2026-05-05 04:12 15.35090 35.50124 34896 ft 472 kts 335°
2026-05-05 04:13 15.41445 35.47373 34896 ft 472 kts 335°
2026-05-05 04:13 15.47768 35.44630 34894 ft 472 kts 335°
2026-05-05 04:14 15.54092 35.41881 34891 ft 472 kts 335°
2026-05-05 04:14 15.60427 35.39122 34889 ft 471 kts 335°
2026-05-05 04:15 15.66760 35.36359 34887 ft 471 kts 335°
2026-05-05 04:15 15.73074 35.33605 34890 ft 471 kts 334°
2026-05-05 04:16 15.79415 35.30836 34894 ft 471 kts 334°
2026-05-05 04:16 15.85743 35.28072 34894 ft 471 kts 334°
2026-05-05 04:17 15.92081 35.25301 34896 ft 471 kts 334°
2026-05-05 04:17 15.98365 35.22552 34897 ft 471 kts 334°
2026-05-05 04:18 16.04690 35.19785 34894 ft 471 kts 334°
2026-05-05 04:18 16.10994 35.17024 34900 ft 471 kts 334°
2026-05-05 04:19 16.17309 35.14256 34897 ft 471 kts 334°
2026-05-05 04:19 16.23599 35.11496 34900 ft 470 kts 334°
2026-05-05 04:20 16.29910 35.08724 34899 ft 470 kts 334°
2026-05-05 04:20 16.36170 35.05974 34903 ft 470 kts 334°
2026-05-05 04:21 16.42473 35.03204 34905 ft 470 kts 334°
2026-05-05 04:21 16.48790 35.00426 34900 ft 471 kts 334°
2026-05-05 04:22 16.55078 34.97658 34902 ft 470 kts 334°
2026-05-05 04:22 16.61353 34.94892 34901 ft 471 kts 334°
2026-05-05 04:23 16.67633 34.92120 34904 ft 471 kts 334°
2026-05-05 04:23 16.73945 34.89334 34906 ft 471 kts 334°
2026-05-05 04:24 16.80276 34.86542 34909 ft 471 kts 334°
2026-05-05 04:25 16.89724 34.82367 34911 ft 471 kts 334°
2026-05-05 04:25 16.96019 34.79582 34911 ft 471 kts 334°
2026-05-05 04:26 17.02330 34.76787 34907 ft 472 kts 334°
2026-05-05 04:26 17.08630 34.73996 34899 ft 472 kts 333°
2026-05-05 04:27 17.14973 34.71178 34909 ft 472 kts 333°
2026-05-05 04:27 17.21287 34.68373 34914 ft 471 kts 333°
2026-05-05 04:28 17.27555 34.65586 34917 ft 471 kts 333°
2026-05-05 04:28 17.33889 34.62777 34915 ft 472 kts 333°
2026-05-05 04:29 17.40209 34.59978 34914 ft 472 kts 333°
2026-05-05 04:29 17.46357 34.57246 34914 ft 473 kts 333°
2026-05-05 04:30 17.52711 34.54417 34916 ft 473 kts 333°
2026-05-05 04:30 17.59021 34.51606 34919 ft 472 kts 333°
2026-05-05 04:31 17.65357 34.48778 34918 ft 472 kts 333°
2026-05-05 04:31 17.71635 34.45975 34917 ft 472 kts 333°
2026-05-05 04:32 17.77984 34.43141 34920 ft 472 kts 333°
2026-05-05 04:32 17.84314 34.40311 34922 ft 473 kts 333°
2026-05-05 04:33 17.90634 34.37484 34924 ft 473 kts 333°
2026-05-05 04:33 17.96972 34.34645 34924 ft 473 kts 333°
2026-05-05 04:34 18.03260 34.31826 34925 ft 473 kts 332°
2026-05-05 04:34 18.09567 34.28997 34926 ft 473 kts 332°
2026-05-05 04:35 18.15892 34.26158 34926 ft 473 kts 332°
2026-05-05 04:35 18.22148 34.23350 34927 ft 472 kts 332°
2026-05-05 04:36 18.28425 34.20531 34934 ft 472 kts 332°
2026-05-05 04:36 18.34749 34.17684 34932 ft 472 kts 332°
2026-05-05 04:37 18.41030 34.14855 34934 ft 472 kts 332°
2026-05-05 04:37 18.47356 34.12004 34937 ft 472 kts 332°
2026-05-05 04:38 18.53619 34.09178 34936 ft 472 kts 332°
2026-05-05 04:38 18.59944 34.06324 34939 ft 472 kts 332°
2026-05-05 04:39 18.66242 34.03480 34939 ft 472 kts 332°
2026-05-05 04:39 18.72553 34.00628 34940 ft 472 kts 331°
2026-05-05 04:40 18.78859 33.97776 34941 ft 471 kts 331°
2026-05-05 04:40 18.85123 33.94939 34937 ft 471 kts 331°
2026-05-05 04:41 18.91424 33.92082 34939 ft 472 kts 331°
2026-05-05 04:41 18.97701 33.89237 34941 ft 472 kts 331°
2026-05-05 04:42 19.04010 33.86375 34940 ft 472 kts 331°
2026-05-05 04:42 19.10275 33.83528 34940 ft 471 kts 331°
2026-05-05 04:43 19.16567 33.80666 34941 ft 471 kts 331°
2026-05-05 04:43 19.22846 33.77810 34947 ft 470 kts 330°
2026-05-05 04:44 19.29137 33.74942 34952 ft 470 kts 331°
2026-05-05 04:44 19.35385 33.72092 34955 ft 470 kts 330°
2026-05-05 04:45 19.41668 33.69225 34958 ft 471 kts 330°
2026-05-05 04:45 19.47942 33.66358 34957 ft 471 kts 330°
2026-05-05 04:46 19.54238 33.63479 34958 ft 471 kts 330°
2026-05-05 04:46 19.60522 33.60601 34959 ft 470 kts 330°
2026-05-05 04:47 19.66788 33.57726 34963 ft 470 kts 330°
2026-05-05 04:47 19.73071 33.54846 34971 ft 470 kts 330°
2026-05-05 04:48 19.79296 33.52005 34975 ft 470 kts 330°
2026-05-05 04:48 19.85576 33.49129 34976 ft 469 kts 330°
2026-05-05 04:49 19.91806 33.46267 34982 ft 470 kts 330°
2026-05-05 04:49 19.98080 33.43382 34986 ft 470 kts 330°
2026-05-05 04:50 20.04339 33.40503 34985 ft 470 kts 330°
2026-05-05 04:50 20.10601 33.37621 34981 ft 470 kts 330°
2026-05-05 04:51 20.16915 33.34711 34981 ft 470 kts 330°
2026-05-05 04:51 20.23150 33.31838 34985 ft 469 kts 329°
2026-05-05 04:52 20.29425 33.28938 34988 ft 468 kts 329°
2026-05-05 04:52 20.35632 33.26065 34985 ft 469 kts 329°
2026-05-05 04:53 20.41909 33.23160 34986 ft 469 kts 329°
2026-05-05 04:53 20.48163 33.20268 34994 ft 469 kts 329°
2026-05-05 04:54 20.54377 33.17388 34996 ft 469 kts 329°
2026-05-05 04:54 20.60620 33.14492 35003 ft 469 kts 329°
2026-05-05 04:55 20.66891 33.11582 35007 ft 468 kts 329°
2026-05-05 04:55 20.73143 33.08678 35006 ft 467 kts 329°
2026-05-05 04:56 20.79323 33.05801 35013 ft 467 kts 329°
2026-05-05 04:56 20.85579 33.02889 35018 ft 466 kts 329°
2026-05-05 04:57 20.91786 32.99996 35030 ft 467 kts 328°
2026-05-05 04:57 20.98004 32.97095 35041 ft 467 kts 328°
2026-05-05 04:58 21.04208 32.94198 35039 ft 466 kts 328°
2026-05-05 04:58 21.10376 32.91314 35046 ft 466 kts 328°
2026-05-05 04:59 21.16569 32.88417 35042 ft 466 kts 328°
2026-05-05 04:59 21.22739 32.85528 35040 ft 466 kts 328°
2026-05-05 05:00 21.28698 32.82737 35050 ft 466 kts 328°
2026-05-05 05:00 21.34881 32.79837 35051 ft 465 kts 328°
2026-05-05 05:01 21.41051 32.76939 35052 ft 465 kts 328°
2026-05-05 05:01 21.47001 32.74144 35046 ft 465 kts 328°
2026-05-05 05:02 21.52915 32.71363 35051 ft 464 kts 328°
2026-05-05 05:02 21.58846 32.68571 35050 ft 464 kts 328°
2026-05-05 05:03 21.64787 32.65773 35053 ft 464 kts 328°
2026-05-05 05:03 21.70680 32.62992 35052 ft 463 kts 327°
2026-05-05 05:04 21.76596 32.60197 35054 ft 463 kts 327°
2026-05-05 05:04 21.82486 32.57414 35054 ft 462 kts 327°
2026-05-05 05:05 21.88387 32.54619 35054 ft 462 kts 327°
2026-05-05 05:05 21.94288 32.51821 35055 ft 462 kts 327°
2026-05-05 05:06 22.00192 32.49024 35056 ft 461 kts 327°
2026-05-05 05:06 22.06001 32.46125 35054 ft 460 kts 326°
2026-05-05 05:07 22.11804 32.43172 35050 ft 460 kts 326°
2026-05-05 05:07 22.17605 32.40223 35049 ft 460 kts 326°
2026-05-05 05:08 22.23421 32.37267 35045 ft 461 kts 326°
2026-05-05 05:08 22.29230 32.34316 35049 ft 459 kts 326°
2026-05-05 05:09 22.34984 32.31390 35044 ft 459 kts 326°
2026-05-05 05:09 22.40606 32.28530 35042 ft 459 kts 326°
2026-05-05 05:10 22.46421 32.25567 35039 ft 459 kts 325°
2026-05-05 05:10 22.52197 32.22621 35036 ft 459 kts 325°
2026-05-05 05:11 22.57972 32.19673 35035 ft 459 kts 325°
2026-05-05 05:11 22.63755 32.16721 35033 ft 458 kts 325°
2026-05-05 05:12 22.69543 32.13765 35033 ft 458 kts 325°
2026-05-05 05:12 22.75286 32.10827 35034 ft 458 kts 325°
2026-05-05 05:13 22.81053 32.07870 35035 ft 458 kts 326°
2026-05-05 05:13 22.86848 32.04898 35036 ft 457 kts 325°
2026-05-05 05:14 22.92579 32.01954 35039 ft 458 kts 325°
2026-05-05 05:14 22.98275 31.99024 35044 ft 458 kts 325°
2026-05-05 05:15 23.04036 31.96056 35045 ft 458 kts 325°
2026-05-05 05:15 23.09849 31.93095 35049 ft 462 kts 328°
2026-05-05 05:16 23.16126 31.91072 35048 ft 479 kts 341°
2026-05-05 05:16 23.22858 31.90584 35051 ft 495 kts 354°
2026-05-05 05:17 23.29798 31.91819 35055 ft 511 kts
2026-05-05 05:17 23.36610 31.94093 35060 ft 512 kts 10°
2026-05-05 05:18 23.43395 31.96508 35068 ft 511 kts 10°
2026-05-05 05:18 23.50199 31.98894 35074 ft 512 kts 10°
2026-05-05 05:19 23.56974 32.01249 35074 ft 511 kts 10°
2026-05-05 05:19 23.63745 32.03595 35079 ft 511 kts 10°
2026-05-05 05:20 23.70558 32.05957 35075 ft 511 kts
2026-05-05 05:20 23.77244 32.08276 35080 ft 510 kts 10°
2026-05-05 05:21 23.84045 32.10638 35080 ft 511 kts 10°
2026-05-05 05:21 23.90836 32.12999 35080 ft 511 kts 10°
2026-05-05 05:22 23.97593 32.15353 35084 ft 511 kts 10°
2026-05-05 05:22 24.04401 32.17729 35087 ft 511 kts
2026-05-05 05:23 24.11152 32.20086 35087 ft 510 kts
2026-05-05 05:23 24.17980 32.22469 35087 ft 510 kts
2026-05-05 05:24 24.24730 32.24829 35087 ft 510 kts
2026-05-05 05:24 24.31517 32.27206 35086 ft 510 kts
2026-05-05 05:25 24.38293 32.29581 35086 ft 510 kts
2026-05-05 05:25 24.45027 32.31944 35079 ft 510 kts
2026-05-05 05:26 24.51793 32.34320 35081 ft 510 kts
2026-05-05 05:26 24.58565 32.36701 35078 ft 509 kts
2026-05-05 05:27 24.65362 32.39093 35078 ft 509 kts
2026-05-05 05:27 24.75351 32.42567 35076 ft 509 kts
2026-05-05 05:28 24.82139 32.44881 35070 ft 509 kts
2026-05-05 05:28 24.88938 32.47201 35067 ft 510 kts
2026-05-05 05:29 24.95715 32.49521 35065 ft 511 kts
2026-05-05 05:29 25.02526 32.51860 35068 ft 510 kts
2026-05-05 05:30 25.09293 32.54187 35072 ft 509 kts
2026-05-05 05:30 25.16088 32.56523 35072 ft 508 kts
2026-05-05 05:31 25.22843 32.58846 35051 ft 507 kts
2026-05-05 05:31 25.29607 32.61175 35068 ft 508 kts
2026-05-05 05:32 25.36348 32.63500 35062 ft 508 kts
2026-05-05 05:32 25.43104 32.65834 35061 ft 507 kts
2026-05-05 05:33 25.49867 32.68173 35069 ft 507 kts
2026-05-05 05:33 25.56622 32.70511 35063 ft 507 kts
2026-05-05 05:34 25.63355 32.72845 35059 ft 507 kts 10°
2026-05-05 05:34 25.66659 32.74337 35047 ft 520 kts 21°
2026-05-05 05:34 25.69751 32.76556 35056 ft 531 kts 33°
2026-05-05 05:35 25.72425 32.79420 35060 ft 538 kts 46°
2026-05-05 05:35 25.74565 32.82819 35057 ft 544 kts 59°
2026-05-05 05:35 25.76088 32.86678 35055 ft 546 kts 72°
2026-05-05 05:35 25.76910 32.90737 35057 ft 545 kts 83°
2026-05-05 05:36 25.77794 32.99099 35037 ft 546 kts 80°
2026-05-05 05:36 25.78810 33.03174 35049 ft 546 kts 68°
2026-05-05 05:36 25.80470 33.06921 35046 ft 543 kts 56°
2026-05-05 05:37 25.82686 33.10242 35064 ft 538 kts 44°
2026-05-05 05:37 25.85404 33.13102 35058 ft 529 kts 32°
2026-05-05 05:37 25.88429 33.15342 35053 ft 520 kts 21°
2026-05-05 05:37 25.91683 33.17060 35067 ft 515 kts 16°
2026-05-05 05:38 25.98262 33.20146 35056 ft 514 kts 15°
2026-05-05 05:38 26.04843 33.23284 35056 ft 515 kts 16°
2026-05-05 05:39 26.11426 33.26507 35056 ft 515 kts 17°
2026-05-05 05:39 26.17983 33.29749 35062 ft 514 kts 17°
2026-05-05 05:40 26.24539 33.32993 35059 ft 515 kts 17°
2026-05-05 05:40 26.31092 33.36241 35055 ft 513 kts 17°
2026-05-05 05:41 26.37645 33.39490 35072 ft 513 kts 17°
2026-05-05 05:41 26.44157 33.42724 35059 ft 513 kts 17°
2026-05-05 05:42 26.50719 33.45994 35069 ft 514 kts 17°
2026-05-05 05:42 26.57259 33.49258 35059 ft 515 kts 17°
2026-05-05 05:43 26.63787 33.52521 35069 ft 514 kts 17°
2026-05-05 05:43 26.70313 33.55784 35065 ft 513 kts 16°
2026-05-05 05:44 26.76823 33.59042 35066 ft 513 kts 17°
2026-05-05 05:44 26.83344 33.62310 35059 ft 513 kts 17°
2026-05-05 05:45 26.89868 33.65588 35052 ft 512 kts 17°
2026-05-05 05:45 26.96245 33.68793 35045 ft 513 kts 17°
2026-05-05 05:46 27.02791 33.72086 35051 ft 513 kts 17°
2026-05-05 05:46 27.09404 33.75418 35039 ft 512 kts 17°
2026-05-05 05:47 27.16111 33.78899 35035 ft 515 kts 20°
2026-05-05 05:47 27.22518 33.83111 35038 ft 523 kts 27°
2026-05-05 05:48 27.28742 33.87780 35032 ft 523 kts 28°
2026-05-05 05:48 27.34972 33.92484 35030 ft 522 kts 27°
2026-05-05 05:49 27.41222 33.97169 35032 ft 522 kts 27°
2026-05-05 05:49 27.47436 34.01822 35029 ft 523 kts 27°
2026-05-05 05:50 27.53721 34.06541 35027 ft 524 kts 27°
2026-05-05 05:50 27.59938 34.11216 35028 ft 525 kts 27°
2026-05-05 05:51 27.66076 34.15844 35023 ft 524 kts 27°
2026-05-05 05:51 27.72379 34.20596 35023 ft 524 kts 27°
2026-05-05 05:52 27.78664 34.25342 35018 ft 524 kts 27°
2026-05-05 05:52 27.84956 34.30092 35006 ft 525 kts 27°
2026-05-05 05:53 27.91268 34.34872 35004 ft 524 kts 26°
2026-05-05 05:53 27.97803 34.39106 35011 ft 517 kts 18°
2026-05-05 05:54 28.04649 34.42248 35006 ft 506 kts
2026-05-05 05:54 28.11700 34.44320 35005 ft 498 kts
2026-05-05 05:55 28.18775 34.45963 35010 ft 497 kts
2026-05-05 05:55 28.25820 34.47611 35019 ft 498 kts
2026-05-05 05:56 28.32880 34.49297 35023 ft 497 kts
2026-05-05 05:56 28.39931 34.50990 35031 ft 497 kts
2026-05-05 05:57 28.47019 34.52694 35035 ft 499 kts
2026-05-05 05:57 28.54069 34.54420 35044 ft 499 kts
2026-05-05 05:58 28.61098 34.56241 35060 ft 499 kts
2026-05-05 05:58 28.68144 34.58065 35066 ft 499 kts
2026-05-05 05:59 28.75224 34.59892 35069 ft 499 kts
2026-05-05 05:59 28.82289 34.61713 35070 ft 500 kts
2026-05-05 06:00 28.89094 34.63468 35071 ft 499 kts
2026-05-05 06:00 28.95905 34.65228 35072 ft 499 kts
2026-05-05 06:01 29.02644 34.67059 35069 ft 504 kts
2026-05-05 06:01 29.09443 34.69614 35072 ft 510 kts 10°
2026-05-05 06:02 29.16256 34.72439 35068 ft 511 kts 11°
2026-05-05 06:02 29.22941 34.75206 35069 ft 512 kts 10°
2026-05-05 06:03 29.29527 34.77918 35079 ft 512 kts 10°
2026-05-05 06:03 29.36260 34.80686 35092 ft 512 kts 10°
2026-05-05 06:04 29.42956 34.83445 35097 ft 513 kts 10°
2026-05-05 06:04 29.49604 34.86837 35098 ft 526 kts 21°
2026-05-05 06:05 29.55849 34.91314 35099 ft 532 kts 25°
2026-05-05 06:05 29.62057 34.95951 35095 ft 528 kts 22°
2026-05-05 06:06 29.68630 34.99235 35091 ft 506 kts
2026-05-05 06:06 29.75455 35.00746 35092 ft 493 kts 356°
2026-05-05 06:07 29.82232 35.01812 35092 ft 493 kts 357°
2026-05-05 06:07 29.89051 35.03083 35090 ft 495 kts 358°
2026-05-05 06:08 29.95879 35.04430 35090 ft 495 kts 359°
2026-05-05 06:08 30.02673 35.05765 35089 ft 495 kts 358°
2026-05-05 06:09 30.09432 35.07100 35088 ft 494 kts 359°
2026-05-05 06:09 30.16286 35.08524 35086 ft 495 kts 359°
2026-05-05 06:10 30.23110 35.09942 35083 ft 496 kts 359°
2026-05-05 06:10 30.28765 35.11019 35028 ft 493 kts 358°
2026-05-05 06:11 30.33271 35.11853 34502 ft 488 kts 358°
2026-05-05 06:11 30.36626 35.12489 33936 ft 487 kts 358°
2026-05-05 06:11 30.39948 35.13126 33380 ft 486 kts 359°
2026-05-05 06:11 30.43318 35.13776 32784 ft 486 kts 359°
2026-05-05 06:12 30.46648 35.14417 32168 ft 487 kts 359°
2026-05-05 06:12 30.49985 35.15057 31489 ft 489 kts 359°
2026-05-05 06:12 30.53346 35.15704 30799 ft 490 kts
2026-05-05 06:12 30.56730 35.16466 30155 ft 495 kts
2026-05-05 06:13 30.60092 35.17408 29496 ft 497 kts
2026-05-05 06:13 30.63437 35.18398 28777 ft 498 kts
2026-05-05 06:13 30.66801 35.19407 28017 ft 499 kts
2026-05-05 06:13 30.70144 35.20411 27226 ft 500 kts
2026-05-05 06:14 30.73501 35.21417 26409 ft 501 kts
2026-05-05 06:14 30.76735 35.22383 25834 ft 497 kts
2026-05-05 06:14 30.80118 35.23395 25301 ft 491 kts
2026-05-05 06:14 30.83414 35.24379 24767 ft 486 kts
2026-05-05 06:15 30.86649 35.25342 24221 ft 481 kts
2026-05-05 06:15 30.89886 35.26304 23648 ft 477 kts
2026-05-05 06:15 30.92946 35.27214 23117 ft 473 kts
2026-05-05 06:15 30.96138 35.28164 22562 ft 469 kts
2026-05-05 06:16 30.99293 35.29102 22035 ft 465 kts
2026-05-05 06:16 31.02407 35.30028 21489 ft 462 kts
2026-05-05 06:16 31.05492 35.30950 20966 ft 458 kts
2026-05-05 06:16 31.07539 35.31560 20629 ft 455 kts
2026-05-05 06:17 31.11616 35.32776 19931 ft 450 kts
2026-05-05 06:17 31.14633 35.33672 19409 ft 446 kts
2026-05-05 06:17 31.17650 35.34569 18875 ft 443 kts
2026-05-05 06:17 31.20623 35.35452 18368 ft 439 kts
2026-05-05 06:18 31.23569 35.36330 17880 ft 434 kts
2026-05-05 06:18 31.26498 35.37198 17396 ft 430 kts
2026-05-05 06:18 31.29362 35.38050 16922 ft 425 kts
2026-05-05 06:18 31.32248 35.38906 16418 ft 421 kts
2026-05-05 06:19 31.35088 35.39626 15928 ft 415 kts
2026-05-05 06:19 31.37919 35.40268 15451 ft 411 kts
2026-05-05 06:19 31.40690 35.40877 15007 ft 406 kts
2026-05-05 06:19 31.43498 35.41492 14509 ft 403 kts
2026-05-05 06:20 31.46224 35.42094 14050 ft 400 kts
2026-05-05 06:20 31.48951 35.42699 13572 ft 396 kts
2026-05-05 06:20 31.51647 35.43295 13111 ft 392 kts
2026-05-05 06:20 31.54352 35.43897 12633 ft 389 kts
2026-05-05 06:21 31.56099 35.44287 12321 ft 386 kts
2026-05-05 06:21 31.59597 35.45069 11690 ft 382 kts
2026-05-05 06:21 31.62215 35.45653 11224 ft 378 kts
2026-05-05 06:21 31.64802 35.46254 10749 ft 375 kts
2026-05-05 06:22 31.67318 35.46856 10236 ft 363 kts
2026-05-05 06:22 31.69747 35.47441 9625 ft 344 kts
2026-05-05 06:22 31.72009 35.47988 9161 ft 326 kts
2026-05-05 06:22 31.74039 35.48490 8807 ft 309 kts
2026-05-05 06:23 31.76075 35.48967 8499 ft 291 kts
2026-05-05 06:23 31.78046 35.49399 8251 ft 283 kts
2026-05-05 06:23 31.79979 35.49816 8040 ft 279 kts
2026-05-05 06:23 31.81902 35.50222 8004 ft 280 kts
2026-05-05 06:24 31.83839 35.50544 8001 ft 281 kts
2026-05-05 06:24 31.85790 35.50790 8000 ft 280 kts
2026-05-05 06:24 31.87752 35.51020 7999 ft 281 kts
2026-05-05 06:24 31.89680 35.50997 7989 ft 274 kts 345°
2026-05-05 06:25 31.91485 35.50352 7995 ft 269 kts 330°
2026-05-05 06:25 31.93054 35.49173 7991 ft 264 kts 315°
2026-05-05 06:25 31.94270 35.47591 7992 ft 260 kts 301°
2026-05-05 06:25 31.95085 35.45747 7999 ft 258 kts 289°
2026-05-05 06:26 31.95702 35.43676 7998 ft 258 kts 287°
2026-05-05 06:26 31.96289 35.41605 8004 ft 258 kts 287°
2026-05-05 06:26 31.96860 35.39582 8026 ft 259 kts 287°
2026-05-05 06:26 31.97432 35.37575 8030 ft 259 kts 287°
2026-05-05 06:27 31.98008 35.35562 8035 ft 259 kts 287°
2026-05-05 06:27 31.99167 35.31527 8032 ft 260 kts 287°
2026-05-05 06:27 31.99744 35.29516 8031 ft 259 kts 287°
2026-05-05 06:28 32.00376 35.27506 8026 ft 260 kts 292°
2026-05-05 06:28 32.01204 35.25618 8022 ft 261 kts 299°
2026-05-05 06:28 32.02238 35.23850 8014 ft 263 kts 306°
2026-05-05 06:28 32.03462 35.22220 8010 ft 264 kts 310°
2026-05-05 06:29 32.04733 35.20654 8010 ft 264 kts 311°
2026-05-05 06:29 32.06010 35.19095 8010 ft 264 kts 311°
2026-05-05 06:29 32.07299 35.17522 8009 ft 264 kts 311°
2026-05-05 06:29 32.08536 35.15928 8012 ft 263 kts 308°
2026-05-05 06:30 32.09735 35.14276 8019 ft 263 kts 308°
2026-05-05 06:30 32.10909 35.12648 7881 ft 260 kts 307°
2026-05-05 06:30 32.12104 35.10985 7522 ft 262 kts 307°
2026-05-05 06:30 32.13275 35.09353 7226 ft 263 kts 307°
2026-05-05 06:31 32.14452 35.07716 6963 ft 261 kts 307°
2026-05-05 06:31 32.15633 35.06073 6689 ft 261 kts 307°
2026-05-05 06:31 32.16807 35.04437 6411 ft 260 kts 307°
2026-05-05 06:31 32.17979 35.02806 6128 ft 260 kts 307°
2026-05-05 06:32 32.19141 35.01186 5999 ft 258 kts 307°
2026-05-05 06:32 32.20188 34.99476 5993 ft 259 kts 298°
2026-05-05 06:32 32.20974 34.97570 5995 ft 257 kts 289°
2026-05-05 06:32 32.21604 34.95577 5994 ft 257 kts 288°
2026-05-05 06:33 32.22204 34.93592 6000 ft 257 kts 288°
2026-05-05 06:33 32.22801 34.91617 5997 ft 256 kts 288°
2026-05-05 06:33 32.23413 34.89610 5990 ft 257 kts 288°
2026-05-05 06:33 32.24015 34.87641 5987 ft 257 kts 288°
2026-05-05 06:34 32.24624 34.85654 5984 ft 257 kts 288°
2026-05-05 06:34 32.25156 34.83667 5980 ft 250 kts 276°
2026-05-05 06:34 32.24939 34.81741 5969 ft 234 kts 246°
2026-05-05 06:34 32.23959 34.80195 5986 ft 237 kts 220°
2026-05-05 06:35 32.22481 34.79309 5995 ft 241 kts 202°
2026-05-05 06:35 32.20874 34.78669 5994 ft 242 kts 201°
2026-05-05 06:35 32.19291 34.78047 5988 ft 242 kts 202°
2026-05-05 06:35 32.17656 34.77507 5984 ft 245 kts 188°
2026-05-05 06:36 32.15949 34.77855 5984 ft 254 kts 157°
2026-05-05 06:36 32.14578 34.79209 5983 ft 263 kts 126°
2026-05-05 06:36 32.13746 34.81130 5991 ft 265 kts 116°
2026-05-05 06:36 32.12999 34.83128 5995 ft 265 kts 116°
2026-05-05 06:37 32.12246 34.85139 6002 ft 264 kts 116°
2026-05-05 06:37 32.11482 34.87129 5993 ft 264 kts 116°
2026-05-05 06:37 32.10715 34.89094 5994 ft 264 kts 116°
2026-05-05 06:37 32.09933 34.91079 5995 ft 264 kts 117°
2026-05-05 06:38 32.09154 34.93047 5998 ft 264 kts 117°
2026-05-05 06:38 32.08380 34.94999 6001 ft 263 kts 117°
2026-05-05 06:38 32.07605 34.96953 6006 ft 263 kts 117°
2026-05-05 06:38 32.06821 34.98925 6007 ft 263 kts 117°
2026-05-05 06:39 32.06043 35.00887 6011 ft 263 kts 117°
2026-05-05 06:39 32.05270 35.02826 6002 ft 263 kts 117°
2026-05-05 06:39 32.04487 35.04797 6010 ft 263 kts 117°
2026-05-05 06:39 32.03718 35.06736 6013 ft 264 kts 117°
2026-05-05 06:40 32.02933 35.08716 6013 ft 265 kts 117°
2026-05-05 06:40 32.02161 35.10664 5949 ft 262 kts 117°
2026-05-05 06:40 32.01380 35.12626 5711 ft 262 kts 117°
2026-05-05 06:40 32.00609 35.14554 5484 ft 262 kts 120°
2026-05-05 06:41 31.99439 35.16134 5215 ft 254 kts 155°
2026-05-05 06:41 31.97777 35.16600 4994 ft 242 kts 185°
2026-05-05 06:41 31.96096 35.16516 4781 ft 241 kts 187°
2026-05-05 06:41 31.94445 35.16278 4614 ft 236 kts 195°
2026-05-05 06:42 31.92872 35.15816 4506 ft 229 kts 199°
2026-05-05 06:42 31.91356 35.15321 4279 ft 218 kts 199°
2026-05-05 06:42 31.90072 35.14575 4070 ft 200 kts 231°
2026-05-05 06:42 31.89575 35.13191 3841 ft 185 kts 267°
2026-05-05 06:43 31.89615 35.11711 3732 ft 173 kts 271°
2026-05-05 06:43 31.89664 35.10380 3703 ft 153 kts 271°
2026-05-05 06:43 31.89848 35.09229 3684 ft 137 kts 287°
2026-05-05 06:43 31.90239 35.08210 3694 ft 134 kts 294°
2026-05-05 06:44 31.90699 35.07257 3705 ft 133 kts 296°
2026-05-05 06:44 31.91179 35.06324 3593 ft 133 kts 297°
2026-05-05 06:44 31.91499 35.05709 3465 ft 132 kts 296°
2026-05-05 06:44 31.92140 35.04477 3213 ft 132 kts 296°
2026-05-05 06:45 31.92621 35.03555 3031 ft 131 kts 296°
2026-05-05 06:45 31.93100 35.02634 2842 ft 131 kts 297°
2026-05-05 06:45 31.93573 35.01722 2659 ft 131 kts 296°
2026-05-05 06:45 31.94057 35.00802 2461 ft 131 kts 296°
2026-05-05 06:46 31.94540 34.99895 2296 ft 130 kts 296°
2026-05-05 06:46 31.95015 34.98986 2145 ft 130 kts 297°
2026-05-05 06:46 31.95495 34.98085 1962 ft 130 kts 297°
2026-05-05 06:46 31.95968 34.97176 1781 ft 130 kts 297°
2026-05-05 06:47 31.96444 34.96257 1566 ft 129 kts 296°
2026-05-05 06:47 31.96908 34.95357 1348 ft 128 kts 295°
2026-05-05 06:47 31.97361 34.94463 1155 ft 128 kts 296°
2026-05-05 06:47 31.97833 34.93559 998 ft 129 kts 296°
2026-05-05 06:48 31.98307 34.92664 837 ft 129 kts 296°
2026-05-05 06:48 31.98778 34.91757 667 ft 129 kts 296°
2026-05-05 06:48 31.99247 34.90868 489 ft 129 kts 296°
2026-05-05 06:48 31.99703 34.89991 297 ft 129 kts 296°
2026-05-05 06:49 32.00172 34.89097 156 ft 125 kts 294°
2026-05-05 06:49 32.00565 34.88316 139 ft 89 kts 301°
2026-05-05 06:49 32.00797 34.87875 134 ft 37 kts 300°
2026-05-05 06:49 32.00899 34.87680 133 ft 25 kts 301°
2026-05-05 06:50 32.00989 34.87503 133 ft 24 kts 299°
2026-05-05 06:50 32.01049 34.87315 129 ft 24 kts 278°
2026-05-05 06:50 32.01060 34.87139 129 ft 17 kts 272°
2026-05-05 06:50 32.01042 34.87059 128 ft 8 kts 208°
2026-05-05 06:51 32.00991 34.87073 129 ft 8 kts 135°
2026-05-05 06:51 32.00959 34.87135 129 ft 9 kts 120°
2026-05-05 06:51 32.00922 34.87211 130 ft 11 kts 120°
2026-05-05 06:51 32.00883 34.87291 132 ft 11 kts 120°
2026-05-05 06:52 32.00841 34.87376 132 ft 12 kts 120°
2026-05-05 06:52 32.00790 34.87473 133 ft 14 kts 122°
2026-05-05 06:52 32.00735 34.87575 134 ft 14 kts 123°
2026-05-05 06:52 32.00679 34.87676 136 ft 13 kts 125°
2026-05-05 06:53 32.00612 34.87711 136 ft 9 kts 174°
2026-05-05 06:53 32.00548 34.87696 136 ft 9 kts 194°
2026-05-05 06:53 32.00486 34.87696 136 ft 6 kts 172°
2026-05-05 06:53 32.00460 34.87683 137 ft 4 kts 230°
2026-05-05 06:54 32.00443 34.87654 137 ft 4 kts 241°
2026-05-05 06:54 32.00431 34.87629 137 ft 2 kts 236°
2026-05-05 06:54 32.00427 34.87622 137 ft 1 kts 236°
2026-05-05 06:54 32.00426 34.87620 137 ft 0 kts 236°